Skip Page Navigation
NASA JPL Caltech
NASA Logo - Jet Propulsion Laboratory + View the NASA Portal
+ Near-Earth Object (NEO) Program
Search JPL
JPL Home Earth Solar System Stars & Galaxies Technology
JPL Solar System Dynamics
BODIES ORBITS EPHEMERIDES TOOLS PHYSICAL DATA DISCOVERY FAQ SITE MAP
JPL Small-Body Database Browser
Search: [ help ]  
(2010 TY53)
Classification: TransNeptunian Object          SPK-ID: 3548524
Ephemeris | Orbit Diagram | Orbital Elements | Physical Parameters ]

[ show orbit diagram ]
Orbital Elements at Epoch 2456800.5 (2014-May-23.0) TDB
Reference: JPL 3 (heliocentric ecliptic J2000)
 Element Value Uncertainty (1-sigma)   Units 
e .4616124879084471 7.0196e-05  
a 39.09945821998068 0.0099715 AU
q 21.05066003518302 0.0041374 AU
i 22.45367307044991 6.0218e-05 deg
node 111.472470654784 0.00071452 deg
peri 2.965832032268034 0.019029 deg
M 318.0612916234605 0.019009 deg
tp 2467203.703323703600
(2042-Nov-15.20332370)
0.99856 JED
period 89300.63279269551
244.49
34.161
0.09353
d
yr
n .004031326416641549 1.5422e-06 deg/d
Q 57.14825640477835 0.014574 AU
  Orbit Determination Parameters
   # obs. used (total)      39  
   data-arc span      3307 days (9.05 yr)  
   first obs. used      2004-10-07  
   last obs. used      2013-10-27  
   planetary ephem.      DE431  
   SB-pert. ephem.      SB431-BIG16  
   condition code      3  
   fit RMS      .48755  
   data source      ORB  
   producer      Otto Matic  
   solution date      2013-Nov-20 19:37:21  

Additional Information
 Earth MOID = 20.0671 AU 
 T_jup = 4.628 
[ show covariance matrix ]

Ephemeris | Orbit Diagram | Orbital Elements | Physical Parameters ]

Physical Parameter Table
Parameter Symbol Value Units Sigma Reference Notes
absolute magnitude H 5.4 mag n/a E2013U59  
Ephemeris | Orbit Diagram | Orbital Elements | Physical Parameters ]
ABOUT SSD CREDITS/AWARDS PRIVACY/COPYRIGHT GLOSSARY LINKS
FirstGov 2014-Apr-24 13:42 UT
(server date/time)  
NASA Home Page
Site Manager:   Donald K. Yeomans
Webmaster  Alan B. Chamberlin